When you browse on this site, cookies collect data to enhance your experience and personalize the content and advertising you see.
Visit our Privacy Policy to learn more. By continuing to use the site, you agree to this use of cookies and data.
  • Em Portugal
  • Lista de países
  • Para 7 dias
  • Temperatura da água
  • Mapas de satélite
  • Mapa do tempo
  • Widgets de tempo
  • user-avatar
    Iniciar Sessão

    Previsão horária em Lemdyay

    Hoje, 26 Junho, Quarta-feira

    Tempo Temperatura Precipitação Vento Pressão Humidade
    00:00 +13°C° 0 mm 2 m/s 759 mmHg 80%
    01:00 +13°C° 0 mm 2 m/s 759 mmHg 81%
    02:00 +13°C° 0 mm 1 m/s 759 mmHg 83%
    03:00 +12°C° 0 mm 1 m/s 759 mmHg 84%
    04:00 +13°C° 0 mm 2 m/s 759 mmHg 82%
    05:00 +14°C° 0 mm 2 m/s 759 mmHg 81%
    06:00 +14°C° 0 mm 2 m/s 759 mmHg 79%
    07:00 +16°C° 0 mm 2 m/s 759 mmHg 71%
    08:00 +18°C° 0 mm 3 m/s 759 mmHg 64%
    09:00 +19°C° 0 mm 3 m/s 759 mmHg 56%
    10:00 +20°C° 0 mm 3 m/s 759 mmHg 52%
    11:00 +21°C° 0 mm 3 m/s 758 mmHg 49%
    12:00 +22°C° 0 mm 3 m/s 758 mmHg 45%
    13:00 +22°C° 0 mm 3 m/s 758 mmHg 45%
    14:00 +23°C° 0 mm 2 m/s 757 mmHg 46%
    15:00 +23°C° 0 mm 2 m/s 757 mmHg 46%
    16:00 +23°C° 0 mm 2 m/s 756 mmHg 51%
    17:00 +21°C° 0 mm 2 m/s 755 mmHg 55%
    18:00 +21°C° 0 mm 2 m/s 755 mmHg 60%
    19:00 +19°C° 0.1 mm 2 m/s 754 mmHg 67%
    20:00 +18°C° 0.1 mm 2 m/s 754 mmHg 73%
    21:00 +17°C° 0.1 mm 2 m/s 753 mmHg 79%
    22:00 +16°C° 1.2 mm 2 m/s 753 mmHg 85%
    23:00 +16°C° 1.2 mm 3 m/s 752 mmHg 91%

    Amanhã, 27 Junho, Quinta-feira

    Tempo Temperatura Precipitação Vento Pressão Humidade
    00:00 +16°C° 1.2 mm 3 m/s 751 mmHg 97%
    01:00 +14°C° 0.7 mm 3 m/s 751 mmHg 97%
    02:00 +14°C° 0.7 mm 3 m/s 751 mmHg 96%
    03:00 +14°C° 0.7 mm 3 m/s 750 mmHg 96%
    04:00 +14°C° 0 mm 3 m/s 750 mmHg 96%
    05:00 +15°C° 0 mm 2 m/s 749 mmHg 95%
    06:00 +14°C° 0 mm 1 m/s 749 mmHg 94%
    07:00 +16°C° 0 mm 1 m/s 749 mmHg 87%
    08:00 +18°C° 0 mm 1 m/s 749 mmHg 80%
    09:00 +20°C° 0 mm 1 m/s 749 mmHg 73%
    10:00 +21°C° 0 mm 1 m/s 748 mmHg 67%
    11:00 +22°C° 0 mm 1 m/s 748 mmHg 61%
    12:00 +23°C° 0 mm 1 m/s 747 mmHg 55%
    13:00 +23°C° 0 mm 2 m/s 747 mmHg 59%
    14:00 +21°C° 0 mm 2 m/s 746 mmHg 63%
    15:00 +21°C° 0 mm 3 m/s 746 mmHg 68%
    16:00 +19°C° 0.4 mm 3 m/s 745 mmHg 77%
    17:00 +18°C° 0.4 mm 2 m/s 744 mmHg 86%
    18:00 +17°C° 0.4 mm 2 m/s 743 mmHg 96%
    19:00 +17°C° 2.2 mm 3 m/s 742 mmHg 96%
    20:00 +17°C° 2.2 mm 4 m/s 742 mmHg 96%
    21:00 +15°C° 2.2 mm 5 m/s 741 mmHg 96%
    22:00 +16°C° 8.3 mm 5 m/s 740 mmHg 97%
    23:00 +16°C° 8.3 mm 5 m/s 739 mmHg 97%

    Depois de amanhã, 28 Junho, Sexta-feira

    Tempo Temperatura Precipitação Vento Pressão Humidade
    00:00 +16°C° 8.3 mm 6 m/s 738 mmHg 98%
    01:00 +16°C° 3.2 mm 5 m/s 737 mmHg 98%
    02:00 +17°C° 3.2 mm 5 m/s 737 mmHg 98%
    03:00 +17°C° 3.2 mm 5 m/s 736 mmHg 98%
    04:00 +17°C° 2.3 mm 5 m/s 735 mmHg 98%
    05:00 +19°C° 2.3 mm 4 m/s 734 mmHg 98%
    06:00 +19°C° 2.3 mm 4 m/s 734 mmHg 98%
    07:00 +19°C° 0.8 mm 4 m/s 734 mmHg 96%
    08:00 +20°C° 0.8 mm 4 m/s 734 mmHg 95%
    09:00 +20°C° 0.8 mm 5 m/s 733 mmHg 93%
    10:00 +21°C° 0.6 mm 5 m/s 733 mmHg 90%
    11:00 +21°C° 0.6 mm 5 m/s 734 mmHg 87%
    12:00 +22°C° 0.6 mm 5 m/s 734 mmHg 84%
    13:00 +22°C° 0.7 mm 5 m/s 734 mmHg 84%
    14:00 +21°C° 0.7 mm 5 m/s 734 mmHg 84%
    15:00 +21°C° 0.7 mm 5 m/s 734 mmHg 84%
    16:00 +20°C° 0.1 mm 5 m/s 734 mmHg 81%
    17:00 +20°C° 0.1 mm 5 m/s 734 mmHg 78%
    18:00 +20°C° 0.1 mm 4 m/s 734 mmHg 75%
    19:00 +18°C° 0.1 mm 4 m/s 734 mmHg 81%
    20:00 +17°C° 0.1 mm 4 m/s 735 mmHg 86%
    21:00 +16°C° 0.1 mm 3 m/s 735 mmHg 92%
    22:00 +14°C° 0 mm 3 m/s 735 mmHg 93%
    23:00 +13°C° 0 mm 3 m/s 735 mmHg 94%

    29 Junho, Sábado

    Tempo Temperatura Precipitação Vento Pressão Humidade
    00:00 +13°C° 0 mm 4 m/s 735 mmHg 94%
    01:00 +12°C° 0 mm 4 m/s 734 mmHg 93%
    02:00 +12°C° 0 mm 5 m/s 734 mmHg 91%
    03:00 +12°C° 0 mm 5 m/s 734 mmHg 89%
    04:00 +11°C° 0 mm 6 m/s 734 mmHg 87%
    05:00 +11°C° 0 mm 6 m/s 735 mmHg 85%
    06:00 +11°C° 0 mm 6 m/s 735 mmHg 83%
    07:00 +13°C° 0 mm 6 m/s 735 mmHg 82%
    08:00 +13°C° 0 mm 6 m/s 736 mmHg 80%
    09:00 +13°C° 0 mm 6 m/s 736 mmHg 79%
    10:00 +14°C° 0.1 mm 6 m/s 737 mmHg 78%
    11:00 +14°C° 0.1 mm 6 m/s 738 mmHg 76%
    12:00 +15°C° 0.1 mm 6 m/s 738 mmHg 75%
    13:00 +15°C° 0.1 mm 5 m/s 739 mmHg 75%
    14:00 +15°C° 0.1 mm 5 m/s 739 mmHg 75%
    15:00 +15°C° 0.1 mm 5 m/s 740 mmHg 75%
    16:00 +15°C° 0.1 mm 4 m/s 740 mmHg 76%
    17:00 +15°C° 0.1 mm 4 m/s 741 mmHg 77%
    18:00 +15°C° 0.1 mm 4 m/s 741 mmHg 79%
    19:00 +13°C° 0 mm 3 m/s 741 mmHg 84%
    20:00 +13°C° 0 mm 2 m/s 742 mmHg 90%
    21:00 +12°C° 0 mm 2 m/s 743 mmHg 95%
    22:00 +10°C° 0 mm 2 m/s 743 mmHg 96%
    23:00 +9°C° 0 mm 2 m/s 743 mmHg 97%

    30 Junho, Domingo

    Tempo Temperatura Precipitação Vento Pressão Humidade
    00:00 +9°C° 0 mm 2 m/s 743 mmHg 97%
    01:00 +8°C° 0 mm 2 m/s 743 mmHg 98%
    02:00 +8°C° 0 mm 2 m/s 744 mmHg 98%
    03:00 +7°C° 0 mm 2 m/s 744 mmHg 98%
    04:00 +8°C° 0 mm 2 m/s 744 mmHg 96%
    05:00 +9°C° 0 mm 2 m/s 744 mmHg 94%
    06:00 +9°C° 0 mm 2 m/s 745 mmHg 93%
    07:00 +10°C° 0 mm 2 m/s 745 mmHg 86%
    08:00 +12°C° 0 mm 2 m/s 745 mmHg 80%
    09:00 +13°C° 0 mm 2 m/s 745 mmHg 74%
    10:00 +14°C° 0 mm 2 m/s 746 mmHg 73%
    11:00 +14°C° 0 mm 2 m/s 746 mmHg 72%
    12:00 +15°C° 0 mm 2 m/s 746 mmHg 71%
    13:00 +15°C° 0.1 mm 2 m/s 747 mmHg 72%
    14:00 +15°C° 0.1 mm 1 m/s 747 mmHg 73%
    15:00 +15°C° 0.1 mm 1 m/s 747 mmHg 74%
    16:00 +15°C° 0.1 mm 1 m/s 747 mmHg 76%
    17:00 +15°C° 0.1 mm 1 m/s 748 mmHg 77%
    18:00 +15°C° 0.1 mm 1 m/s 748 mmHg 78%
    19:00 +15°C° 0.1 mm 1 m/s 748 mmHg 83%
    20:00 +14°C° 0.1 mm 1 m/s 749 mmHg 88%
    21:00 +13°C° 0.1 mm 1 m/s 749 mmHg 92%
    22:00 +12°C° 0 mm 1 m/s 749 mmHg 93%
    23:00 +11°C° 0 mm 1 m/s 750 mmHg 94%

    1 Julho, Segunda-feira

    Tempo Temperatura Precipitação Vento Pressão Humidade
    00:00 +10°C° 0 mm 1 m/s 750 mmHg 96%
    01:00 +10°C° 0 mm 1 m/s 750 mmHg 96%
    02:00 +10°C° 0 mm 1 m/s 750 mmHg 96%
    03:00 +9°C° 0 mm 1 m/s 750 mmHg 96%
    04:00 +10°C° 0 mm 1 m/s 750 mmHg 95%
    05:00 +11°C° 0 mm 1 m/s 751 mmHg 94%
    06:00 +12°C° 0 mm 1 m/s 751 mmHg 93%
    07:00 +14°C° 0 mm 1 m/s 751 mmHg 84%
    08:00 +16°C° 0 mm 1 m/s 750 mmHg 75%
    09:00 +19°C° 0 mm 1 m/s 750 mmHg 66%
    10:00 +20°C° 0 mm 1 m/s 750 mmHg 61%
    11:00 +20°C° 0 mm 2 m/s 750 mmHg 56%
    12:00 +21°C° 0 mm 2 m/s 750 mmHg 52%
    13:00 +21°C° 0 mm 2 m/s 750 mmHg 52%
    14:00 +21°C° 0 mm 2 m/s 749 mmHg 52%
    15:00 +23°C° 0 mm 2 m/s 749 mmHg 52%
    16:00 +21°C° 0 mm 2 m/s 749 mmHg 56%
    17:00 +21°C° 0 mm 2 m/s 749 mmHg 60%
    18:00 +20°C° 0 mm 2 m/s 748 mmHg 64%
    19:00 +20°C° 0 mm 1 m/s 748 mmHg 69%
    20:00 +18°C° 0 mm 1 m/s 748 mmHg 75%
    21:00 +16°C° 0 mm 1 m/s 748 mmHg 80%
    22:00 +15°C° 0.1 mm 1 m/s 748 mmHg 84%
    23:00 +15°C° 0.1 mm 1 m/s 748 mmHg 88%
    Mostrar mais